Overview Statistics Trail Chart Weather Telemetry Raw packets
 

This is the latest recevied weather packets stored in our database for station/object DK0KTL-4. If no packets are shown the sender has not sent any weather packets the latest 10 day(s).

<< 92 93 94 95 96 97 98 >>
Time Temp. Humidity Pressure Rain* Wind** Luminosity Snow
1787840675 30.56° C 50% 1013.5 hPa 0 mm - - -
1787840375 30.56° C 50% 1013.6 hPa 0 mm - - -
1787840074 30.56° C 49% 1013.5 hPa 0 mm - - -
1787839774 30.56° C 48% 1013.5 hPa 0 mm - - -
1787839474 30.56° C 48% 1013.5 hPa 0 mm - - -
1787839177 30.56° C 49% 1013.6 hPa 0 mm - - -
1787838873 30.56° C 47% 1013.6 hPa 0 mm - - -
1787838573 31.11° C 43% 1013.6 hPa 0 mm - - -
1787838273 31.11° C 49% 1013.6 hPa 0 mm - - -
1787837972 30.56° C 49% 1013.5 hPa 0 mm - - -
1787837672 30.56° C 50% 1013.4 hPa 0 mm - - -
1787837372 30° C 49% 1013.5 hPa 0 mm - - -
1787837071 30° C 47% 1013.6 hPa 0 mm - - -
1787836771 30° C 45% 1013.6 hPa 0 mm - - -
1787836471 30° C 46% 1013.6 hPa 0 mm - - -
1787836171 30.56° C 46% 1013.6 hPa 0 mm - - -
1787835870 31.11° C 48% 1013.8 hPa 0 mm - - -
1787835570 31.11° C 51% 1013.8 hPa 0 mm - - -
1787835270 31.11° C 48% 1013.7 hPa 0 mm - - -
1787834969 31.11° C 49% 1013.9 hPa 0 mm - - -
1787834669 31.11° C 46% 1013.9 hPa 0 mm - - -
1787834369 30.56° C 53% 1014 hPa 0 mm - - -
1787834069 30.56° C 51% 1014 hPa 0 mm - - -
1787833768 30.56° C 52% 1014.2 hPa 0 mm - - -
1787833468 30.56° C 53% 1014.3 hPa 0 mm - - -

* Rain latest hour (hover to see other rain measurements)
** Current wind speed in m/s (hover to see current wind gust speed)